sat.trackr.live / text

‹ back to catalog

HULIANWANG DIGUI-76

NORAD 65308 · 2025-187D

PAYLOAD ACTIVE UNKNOWN

§ Identity

Operator
Country
PRC
Launch date
2025-08-25
Launch site
WSC
Launch vehicle
Mass (kg)
RCS (m²)

External: N2YO · Heavens-Above · Gunter

§ Orbital elements

Epoch: 2026-09-20T22:35:25.195776Z

Period
108.33 min
Inclination
50.0001°
Eccentricity
0.0000760
Mean motion
13.29326779 rev/d
Perigee alt
1,148.7 km
Apogee alt
1,149.9 km
Semi-major
7,527.4 km
B*
6.4579e-5
RAAN
222.5571°
Arg perigee
354.5104°
Mean anomaly
5.5760°
Rev number
5,243

§ Raw data

HULIANWANG DIGUI-761 65308U 25187D   26263.94126384 -.00000094  00000+0  64579-4 0  99992 65308  50.0001 222.5571 0000760 354.5104   5.5760 13.29326779 52435

JSON: /api/v1/satellites/65308 · /tle

For live sub-satellite position, see the globe view (requires WebGL).

§ Visibility from observer

Set your observer location to see the next 7 days of passes ≥ 10°. The values pass through the URL so the page stays shareable.

No JS? Fill the form by hand. The geolocation button needs JavaScript.